Printer-friendly version

IAU Minor Planet Center

Minor Planet Center

MPEC 2005-B05 : 2005 AY28

The following Minor Planet Electronic Circular may be linked-to from your own Web pages, but must not otherwise be redistributed electronically.


Read MPEC 2005-B04 Read MPEC 2005-B06


M.P.E.C. 2005-B05                                Issued 2005 Jan. 17, 05:15 UT

     The Minor Planet Electronic Circulars contain information on unusual
         minor planets and routine data on comets.  They are published
   on behalf of Commission 20 of the International Astronomical Union by the
          Minor Planet Center, Smithsonian Astrophysical Observatory,
                          Cambridge, MA 02138, U.S.A.

                  Supported in part by the Brinson Foundation
             Prepared using the Tamkin Foundation Computer Network

                              MPC@CFA.HARVARD.EDU
          URL http://cfa-www.harvard.edu/iau/mpc.html  ISSN 1523-6714

                                   2005 AY28

Observations:
     K05A28Y* C2005 01 15.30158 07 54 25.67 +19 46 27.3          19.8   EB005704
     K05A28Y  C2005 01 15.31499 07 54 20.75 +19 46 51.4          19.9   EB005704
     K05A28Y  C2005 01 15.32864 07 54 15.56 +19 47 16.2          19.5   EB005704
     K05A28Y  C2005 01 15.34259 07 54 10.37 +19 47 40.4          19.1   EB005704
     K05A28Y bC2005 01 16.12400 07 49 22.22 +20 10 55.7                 EB005J95
     K05A28Y bC2005 01 16.15166 07 49 11.64 +20 11 44.6                 EB005J95
     K05A28Y bC2005 01 16.15610 07 49 09.89 +20 11 53.4                 EB005J95
     K05A28Y bC2005 01 16.16451 07 49 06.76 +20 12 08.6          18.9 R EB005J95
     K05A28Y 5C2005 01 16.17361 07 49 06.28 +20 12 33.7          19.0 R EB005673
     K05A28Y 5C2005 01 16.17593 07 49 05.36 +20 12 37.5                 EB005673
     K05A28Y 5C2005 01 16.18079 07 49 03.47 +20 12 46.8                 EB005673
     K05A28Y  C2005 01 16.18594 07 49 01.40 +20 12 58.1          18.9 R EB005G90
     K05A28Y  C2005 01 16.18602 07 49 01.36 +20 12 58.6          19.3 V EB005691
     K05A28Y 5C2005 01 16.18831 07 49 00.70 +20 13 00.2                 EB005673
     K05A28Y  C2005 01 16.19071 07 48 59.56 +20 13 07.0          19.1 R EB005G90
     K05A28Y  C2005 01 16.19549 07 48 57.75 +20 13 15.9          19.2 R EB005G90
     K05A28Y  C2005 01 16.21196 07 48 51.40 +20 13 46.5          20.0 V EB005691
     K05A28Y  C2005 01 16.23903 07 48 40.91 +20 14 36.7          19.4 V EB005691
     K05A28Y  C2005 01 16.28436 07 48 23.26 +20 15 59.7          18.9 R EB005854
     K05A28Y  C2005 01 16.28998 07 48 21.10 +20 16 09.9          18.9 R EB005854
     K05A28Y  C2005 01 16.29424 07 48 19.27 +20 16 16.0          18.9   EB005704
     K05A28Y  C2005 01 16.29563 07 48 18.88 +20 16 20.0          18.9 R EB005854
     K05A28Y  C2005 01 16.30817 07 48 13.85 +20 16 42.4          19.4   EB005704
     K05A28Y  C2005 01 16.32186 07 48 08.54 +20 17 06.5          19.6   EB005704
     K05A28Y  C2005 01 16.34738 07 47 58.29 +20 17 49.1          19.7 R EB005734
     K05A28Y  C2005 01 16.35290 07 47 56.08 +20 17 58.7          19.2 R EB005734
     K05A28Y 2C2005 01 16.39942 07 47 38.15 +20 19 25.4          18.3 R EB005H06
     K05A28Y 2C2005 01 16.40668 07 47 35.35 +20 19 38.5          18.5 R EB005H06
     K05A28Y 2C2005 01 16.41408 07 47 32.51 +20 19 51.9          18.0 R EB005H06
     K05A28Y  C2005 01 16.91427 07 44 22.50 +20 34 56.6          18.9 R EB005118
     K05A28Y  C2005 01 16.91663 07 44 21.63 +20 34 59.9          18.7 R EB005118
     K05A28Y  C2005 01 16.91781 07 44 21.16 +20 35 02.3          18.6 R EB005118
     K05A28Y  C2005 01 16.91826 07 44 21.10 +20 35 03.5                 EB005246
     K05A28Y  C2005 01 16.91956 07 44 20.60 +20 35 05.5                 EB005246
     K05A28Y  C2005 01 16.91957 07 44 20.93 +20 35 02.5                 EB005J95
     K05A28Y  C2005 01 16.92015 07 44 20.36 +20 35 06.9                 EB005246
     K05A28Y  C2005 01 16.92072 07 44 20.14 +20 35 07.9                 EB005246
     K05A28Y  C2005 01 16.92135 07 44 19.88 +20 35 08.5                 EB005246
     K05A28Y  C2005 01 16.92269 07 44 19.38 +20 35 11.4                 EB005246
     K05A28Y  C2005 01 16.92745 07 44 17.79 +20 35 17.1                 EB005J95
     K05A28Y  C2005 01 16.93489 07 44 14.83 +20 35 31.1          18.9 R EB005J95
     K05A28Y 5C2005 01 17.16748 07 42 45.34 +20 42 41.9          19.0 R EB005673
     K05A28Y 5C2005 01 17.17269 07 42 43.29 +20 42 51.6                 EB005673
     K05A28Y 5C2005 01 17.17488 07 42 42.43 +20 42 55.6                 EB005673
     K05A28Y 5C2005 01 17.17975 07 42 40.45 +20 43 05.1                 EB005673

Observer details:
118 Modra.  Observer L. Kornos.  0.6-m f/5.5 reflector + CCD.
246 Klet Observatory-KLENOT.  Observers M. Tichy, J. Ticha.  Measurer M. Tichy.
    1.06-m KLENOT Telescope + CCD.
673 Table Mountain Observatory, Wrightwood.  Observer J. Young.  0.6-m
    reflector + CCD.
691 Steward Observatory, Kitt Peak.  Observer M. T. Read.  0.9-m f/3 reflector
    + CCD.
704 Lincoln Laboratory ETS, New Mexico.  Observers M. Blythe, F. Shelly,
    M. Bezpalko, R. Huber, L. Manguso, D. Torres, R. Kracke, M. McCleary,
    H. Stange, A. Milner.  Measurers J. Stuart, R. Sayer, J. Evans, J. Kommers.
    1.0-m f/2.15 reflector + CCD.
734 Farpoint Observatory.  Observer G. Hug.  0.36-m f/10 Schmidt-Cassegrain
    + CCD.
854 Sabino Canyon Observatory, Tucson.  Observer J. E. McGaha.  0.36-m f/10.0
    Schmidt-Cassegrain + CCD.
G90 Three Buttes Observatory, Tucson.  Observer G. R. Jones.  0.40-m
    Ritchey-Chretien + CCD.
H06 New Mexico Skies Observatory.  Observer R. Hutsebaut.  0.30-m reflector
    + CCD.
J95 Great Shefford.  Observer P. Birtwhistle.  0.30-m f/6.3 Schmidt-Cassegrain
    + CCD.

Orbital elements:
2005 AY28                                                            PHA 0.042
Epoch 2005 Jan. 10.0 TT = JDT 2453380.5                 MPC
M 235.39202              (2000.0)            P               Q
n   1.20984434     Peri.  155.65487     +0.06011614     +0.99419638
a   0.8722676      Node   117.68500     -0.93155041     +0.08798801
e   0.5641501      Incl.    5.78242     -0.35860825     -0.06190047
P   0.81           H   21.5           G   0.15
From 45 observations 2005 Jan. 15-17.

Ephemeris:
2005 AY28                a,e,i = 0.87, 0.56, 6                   q = 0.3802
Date    TT    R. A. (2000) Decl.     Delta      r     Elong.  Phase     V
2005 01 10    08 22.52   +17 17.4    0.292    1.269   165.8    11.0    20.0
2005 01 20    07 23.22   +22 09.1    0.241    1.222   169.2     8.6    19.4
2005 01 30    06 02.31   +26 20.8    0.222    1.164   140.3    32.7    19.9
2005 02 09    04 42.66   +27 43.8    0.232    1.096   112.5    56.2    20.6
2005 02 19    03 41.68   +27 00.5    0.257    1.017    89.0    76.4    21.3
2005 03 01    02 55.53   +25 23.4    0.286    0.926    68.7    94.6    22.0

Timothy B. Spahr             (C) Copyright 2005 MPC           M.P.E.C. 2005-B05

Read MPEC 2005-B04 Read MPEC 2005-B06


Our Web policy. Index to the CBAT/MPC/ICQ pages.


Valid HTML 4.01!